Location: Unspecified
(43.8044°N, 11.0278°E)
Time: 01:48:16
(UTC+02:00)

Cosmos 1674 - Visible Passes

Search period start: 03 September 2014 00:00
Search period end: 13 September 2014 00:00
Orbit: 514 x 544 km, 82.5° (Epoch: 02 September)

Date Brightness Start Highest point End Pass type
(mag) Time Alt. Az. Time Alt. Az. Time Alt. Az.
07 Sep 6.1 23:39:51 10° N 23:39:54 10° NNW 23:39:54 10° NNW visible
08 Sep 6.0 23:28:55 10° N 23:29:04 11° N 23:29:04 11° N visible
09 Sep 5.9 23:18:00 10° N 23:18:14 12° N 23:18:14 12° N visible
10 Sep 5.8 23:07:05 10° N 23:07:24 12° N 23:07:24 12° N visible
11 Sep 5.7 22:56:09 10° N 22:56:35 13° N 22:56:35 13° N visible
12 Sep 5.6 22:45:14 10° N 22:45:46 14° N 22:45:46 14° N visible
